Content
SEND FEEDBACK

Daily
Averages
Monthly
Summary
United States of America

ST. LOUIS, MISSOURI


Home > North America > United States > Missouri
Elevation: 163 meters     Latitude: 38 45N     Longitude: 090 22W

WEATHER
 
SELECT A DAY
Number of Records: 199,662;   Date Range: 1/1/95 - 10/21/14
 
SHARE

PRINT THIS DATA

[ ← Previous Day ]
WEATHER ALMANAC - 6 JULY, 2013
[ Next Day → ]
[ °F ]   °C
Weather ElementAverageHighLow
Temperature24.9 °C30.6 °C (1:54 pm)18.3 °C (5:54 am)
Dewpoint17.9 °C20 °C (7:54 am)14.4 °C (6:54 pm)
Humidity67.3 %93 % (2:54 am)43 % (2:54 pm)
Barometer1015.6 hPa1016.9 hPa (6:54 am)1013.9 hPa (4:54 pm)
Wind Speed5.8 km/h27.8 km/h (6:32 pm)
Wind Gust37 km/h (6:32 pm)
Weather ElementAverage
Visibility13.7 km
Wind DirectionENE (70.4 °)

Weather ElementTotal
Precipitation---
Cooling Degree Days6.1 (Base 18.3)
Growing Degree Days14.4 (Base 10)
Averaged from 26 records on 6 July, 2013
WEATHER CONDITIONS BREAKOUT
WIND DIRECTION BREAKOUT
WEATHER BY HOUR - 6 JULY, 2013
[ °F ]   °C
Local TimeTemperatureDewpointHumidityBarometerVisibilityWind DirectionWind SpeedGust SpeedPrecipitationEventsConditions
1:54 AM20 °C18.3 °C90 %1015.9 hPa9.7 kmCalmClear
2:54 AM18.9 °C17.8 °C93 %1015.9 hPa4.8 kmSW (220°)5.6 km/hClear
3:54 AM19.4 °C18.3 °C93 %1015.9 hPa4.8 kmCalmClear
4:54 AM18.9 °C17.8 °C93 %1015.9 hPa6.4 kmCalmClear
5:54 AM18.3 °C17.2 °C93 %1016.3 hPa6.4 kmCalmMostly Cloudy
6:54 AM19.4 °C18.3 °C93 %1016.9 hPa6.4 kmCalmClear
7:54 AM22.2 °C20 °C87 %1016.6 hPa12.9 kmCalmPartly Cloudy
8:54 AM25 °C20 °C74 %1016.9 hPa16.1 kmSSW (200°)7.4 km/hPartly Cloudy
9:54 AM26.1 °C20 °C69 %1016.6 hPa16.1 kmSouth (180°)11.1 km/hClear
10:54 AM27.8 °C19.4 °C60 %1016.6 hPa16.1 kmVariable7.4 km/hClear
11:54 AM28.9 °C18.9 °C55 %1016.3 hPa16.1 kmSouth (170°)5.6 km/hPartly Cloudy
12:54 PM30 °C16.7 °C44 %1015.6 hPa16.1 kmCalmPartly Cloudy
1:54 PM30.6 °C17.2 °C44 %1014.9 hPa16.1 kmCalmScattered Clouds
2:54 PM30.6 °C16.7 °C43 %1014.6 hPa16.1 kmCalmMostly Cloudy
3:54 PM30.6 °C17.8 °C46 %1014.2 hPa16.1 kmVariable7.4 km/hScattered Clouds
4:54 PM30.6 °C17.2 °C44 %1013.9 hPa16.1 kmCalmMostly Cloudy
5:54 PM30.6 °C18.3 °C48 %1013.9 hPa16.1 kmVariable11.1 km/hMostly Cloudy
6:03 PM30 °C20 °C55 %1014.6 hPa16.1 kmSW (220°)13 km/hThunderstormMostly Cloudy
6:32 PM27 °C16 °C51 %1014.6 hPa16.1 kmSSW (200°)27.8 km/h37 km/hThunderstormMostly Cloudy
6:54 PM26.7 °C14.4 °C47 %1014.6 hPa16.1 kmSSE (160°)14.8 km/hThunderstormThunderstorm
7:54 PM22.8 °C18.3 °C76 %1014.6 hPa16.1 kmEast (100°)7.4 km/hThunderstormMostly Cloudy
8:54 PM22.8 °C17.8 °C73 %1015.2 hPa16.1 kmCalmThunderstormClear
9:00 PM23 °C18 °C73 %1015.9 hPa16.1 kmEast (90°)7.4 km/hScattered Clouds
9:54 PM22.8 °C16.7 °C68 %1015.2 hPa16.1 kmSE (140°)16.7 km/hScattered Clouds
10:54 PM22.8 °C16.7 °C68 %1016.3 hPa16.1 kmCalmClear
11:54 PM22.2 °C16.7 °C71 %1015.9 hPa16.1 kmSSE (150°)5.6 km/hClear
Hourly data recorded from KSUS, located 0 kilometers away from St. Louis, Missouri







STORIES FROM OUR PARTNERS